www.pogodaiklimat.ru

Погода и климат >> Архив погоды >> Россия >> Камчатский край >> Долиновка


ПОГОДА в Долиновке

  • Прогноз погоды в Долиновке
  • Монитор погоды в Долиновке

АРХИВ ПОГОДЫ в Долиновке

Время (UTC), дата Ветер
(напр.,м/с)
 
Видим.   Явления Облачность Т
(С)
Тd
(С)
f
(%)
Тe
(С)
Тes
(С)
Комфортность P
(гПа)
Po
(гПа)
Тmin
(С)
Tmax
(С)
R
(мм)
R24
(мм)
S
(см)
09 12.04 штиль 0
{5}
50 км 4/3 1000 м
[Sc Ci fib]
-1.7 -7.0 67 -2 -2 1011.6 998.7 +5.8
12 12.04 СВ 1 20 км 4/1 1000 м
[Sc Ci sp]
-5.4 -7.7 84 -8 -8 1013.1 1000.0
15 12.04 штиль 0 20 км 3/3 1000 м
[Sc]
-6.5 -8.2 88 -7 -7 1014.4 1001.3
18 12.04 штиль 0 50 км 4/0
[Ci sp]
-9.3 -9.7 97 -10 -10 1014.6 1001.3
21 12.04 штиль 0
{2}
50 км 8/0
[Ci sp]
-2.9 -8.1 67 -4 -0 1014.7 1001.8 -10.1 25
00 13.04 ЮЗ 2 50 км 4/0
[Ci fib]
+2.9 -8.1 44 +1 +10 опасность
простуды
1013.9 1001.2
03 13.04 штиль 0 50 км 6/0
[Ci fib]
+5.7 -10.1 31 +6 +11 1013.9 1001.3
06 13.04 ЮЗ 2 50 км 9/0
[Ci sp]
+5.6 -9.0 34 +4 +4 1013.9 1001.3
09 13.04 СВ 1
{4}
50 км 6/0
[Ci fib]
-0.7 -7.1 62 -2 -2 1015.6 1002.7 +6.6
12 13.04 штиль 0 20 км 4/0
[Ci fib]
-4.8 -7.6 81 -6 -6 1017.1 1004.0
15 13.04 штиль 0 20 км 4/0
[Ci fib]
-8.9 -10.0 92 -10 -10 1017.3 1004.0
18 13.04 штиль 0 50 км 3/0
[Ci fib]
-11.7 -12.5 94 -12 -12 1018.8 1005.3
21 13.04 штиль 0
{3}
50 км ясно -4.3 -9.4 68 -5 -1 1018.0 1005.0 -12.0 23
00 14.04 З 1 50 км ясно +2.8 -11.1 35 +2 +14 опасность
простуды
1018.1 1005.3
03 14.04 ЮЗ 2 50 км ясно +5.4 -12.1 27 +4 +14 опасность
простуды
1016.6 1004.0
06 14.04 ЮЗ 2 50 км ясно +5.3 -7.9 38 +4 +6 1015.3 1002.7
09 14.04 штиль 0
{4}
50 км ясно -0.7 -7.7 59 -1 -1 1016.9 1004.0 +6.6
12 14.04 З 1 20 км ясно -5.0 -9.3 72 -7 -7 1017.1 1004.0
15 14.04 штиль 0 20 км ясно -8.5 -9.7 91 -9 -9 1017.3 1004.0
18 14.04 штиль 0 50 км 4/0
[Ac As]
-9.2 -9.7 96 -10 -10 1017.3 1004.0
21 14.04 штиль 0
{2}
50 км 4/0
[Ci fib]
-2.4 -7.3 69 -3 +1 1017.4 1004.5 -11.0 20
00 15.04 ЮВ 1 50 км 5/3 1000 м
[Sc Ci sp]
+3.4 -11.8 32 +3 +11 опасность
простуды
1017.0 1004.3
03 15.04 ЮЗ 1 50 км 5/0
[Ci sp]
+6.6 -13.0 23 +7 +12 1016.6 1004.0
06 15.04 З 1 50 км 3/3 1000 м
[Sc]
+7.1 -11.1 26 +7 +10 1016.5 1004.0 +8.4
09 15.04 З 1
{5}
50 км 3/3 1000 м
[Sc]
+1.5 -7.8 50 0 0 1018.1 1005.3 +8.4
12 15.04 штиль 0 н/о н/о -3.8 -7.2 77 -5 -5 1021.1 1008.0
15 15.04 штиль 0 20 км ясно -6.0 -7.7 88 -7 -7 1022.5 1009.3
18 15.04 штиль 0 н/о н/о -8.3 -8.6 98 -9 -9 1024.1 1010.7
21 15.04 ЮЗ 1
{3}
50 км 6/3 1000 м
[Sc Ci sp]
-2.6 -6.5 75 -5 -2 1022.8 1009.8 -9.1 18
00 16.04 Ю 1 50 км 9/3 1000 м
[Sc Ci sp]
+3.5 -7.2 45 +3 +10 1022.2 1009.5
03 16.04 ЮЗ 1 50 км 9/3 1000 м
[Sc Ci sp]
+6.3 -8.4 34 +6 +7 1021.9 1009.3
06 16.04 З 1 50 км 9/8 1000 м
[Sc Ci sp]
+6.0 -6.6 40 +6 +6 1020.6 1008.0
09 16.04 штиль 0
{5}
50 км 10/10 1000 м
[Sc]
+1.8 -3.9 66 +1 +1 1022.1 1009.3 +7.6
12 16.04 штиль 0 20 км 9/9 1000 м
[Sc]
-1.1 -3.6 83 -2 -2 1022.3 1009.3
15 16.04 штиль 0 20 км 10/10 1000 м
[Sc]
-1.0 -3.2 85 -2 -2 1022.3 1009.3
18 16.04 штиль 0 50 км 10/10 1000 м
[Sc]
-1.2 -2.9 88 -2 -2 1022.3 1009.3
21 16.04 штиль 0
{2}
20 км слаб. ливневой снег 10/10 600 м
[Cb cap]
-0.4 -4.3 75 -1 -1 1022.3 1009.3 -1.5 0.0 16
00 17.04 Ю 1 20 км слаб. ливневой снег 10/10 600 м
[Cb cap]
+1.7 -2.1 76 0 0 1020.7 1007.9
03 17.04 ЮЗ 2 50 км {ливн. осадки} 9/5 1000 м
[Sc Ci fib]
+5.9 -3.2 52 +4 +5 1019.3 1006.7
06 17.04 штиль 0 50 км {ливн. осадки} 9/4 1000 м
[Sc Ac As Ci fib]
+6.6 -3.6 48 +6 +7 1017.9 1005.3
09 17.04 штиль 0
{3}
50 км 9/6 1000 м
[Sc Ci fib]
+3.5 -3.3 61 +3 +3 1019.4 1006.7 +7.0 0.4
12 17.04 СВ 1 20 км 9/8 1000 м
[Sc Ci fib]
+0.7 -3.8 72 -1 -1 1020.9 1008.0
15 17.04 штиль 0 20 км 9/8 1000 м
[Sc Ci fib]
-0.2 -2.7 83 -1 -1 1022.2 1009.3
18 17.04 штиль 0 50 км 9/9 1000 м
[Sc]
-0.8 -2.7 87 -2 -2 1023.7 1010.7
21 17.04 штиль 0
{3}
50 км 10/4 1000 м
[Sc Ac As]
+1.0 -2.9 75 0 0 1023.6 1010.7 -0.9 13
00 18.04 З 1 50 км 9/4 1000 м
[Sc Ac trans Ci fib]
+5.0 -3.5 54 +4 +6 1023.4 1010.7
03 18.04 штиль 0 50 км 6/0
[Ci fib]
+8.3 -5.5 37 +8 +14 1023.3 1010.7
06 18.04 З 2 50 км 3/0
[Ci fib]
+7.4 -5.6 39 +6 +9 1023.3 1010.7
09 18.04 штиль 0
{5}
50 км 4/0
[Ac As]
+1.5 -5.2 61 +1 +1 1024.9 1012.0 +9.0
12 18.04 штиль 0 20 км ясно -3.1 -5.1 86 -4 -4 1025.1 1012.0
15 18.04 штиль 0 20 км ясно -5.1 -5.6 96 -6 -6 1026.5 1013.3
18 18.04 штиль 0 50 км 5 баллов -6.2 -6.5 98 -7 -7 1026.6 1013.3
21 18.04 ЮЗ 1 50 км 9/0
[Ci sp]
-0.8 -4.1 78 -3 +1 1026.3 1013.3 -6.5 11
00 19.04 З 1 50 км 8/0
[Ci fib]
+6.7 -5.1 43 +6 +17 опасность
простуды
1025.6 1013.0
03 19.04 штиль 0 50 км 7 баллов +10.8 -6.5 29 +11 +15 1025.8 1013.3
06 19.04 ЮЗ 3 50 км 6 баллов +10.3 -6.1 31 +9 +10 1024.5 1012.0

 

Местоположение метеостанции Долиновка (Камчатский край, Россия): широта 55.12 долгота 159.00 высота над уровнем моря 102 м.

В архиве по умолчанию представлена погода в Долиновке за последнюю неделю. Архивные данные за месяц целиком и за предыдущие месяцы, начиная с января 2011 года, Вы можете получить, выбрав интересующий диапазон дат из раскрывающегося списка и нажав кнопку "Ввод!".


*Определитесь, кто Вы:
робот инопланетянин человек

Внимание! Время в таблицах - всемирное. Для получения местного времени необходимо прибавить поправку, которая равна 12 ч.

Смотрите также архив погоды в соседних городах и на ближайших метеорологических станциях:

Погода в Мильково (Камчатский край, Россия) (58 км)
Погода в Эссо (Камчатский край, Россия) (92 км)
Погода в Козыревске (Камчатский край, Россия) (115 км)
Погода в Пущино (Камчатский край, Россия) (123 км)
Погода в Семячике (Камчатский край, Россия) (125 км)
Погода в Ключах (Камчатский край, Россия) (175 км)
Погода в Соболево (Камчатский край, Россия) (219 км)
Погода в Иче (Камчатский край, Россия) (227 км)
Погода в Петропавловск-Камч. 2 (Камчатский край, Россия) (229 км)
Погода в Сосновке (Камчатский край, Россия) (231 км)

Пояснения к столбцам:

Ветер - указаны скорость ветра в м/с - средняя за 10 мин, порывы в срок и между сроками (в фигурных скобках) и направление, откуда дует ветер: С - северный, СВ - северо-восточный, В - восточный, ЮВ - юго-восточный, Ю - южный, ЮЗ - юго-западный, З - западный, СЗ - северо-западный.
Видимость - горизонтальная дальность видимости в метрах или километрах. При видимости от 1 до 10 км при отсутствии осадков обычно наблюдается дымка, при ухудшении видимости до 1 км и менее - туман. В сухую погоду видимость может ухудшаться дымом, пылью или мглою.
Явления - указаны атмосферные явления, наблюдавшиеся в срок или в последний час перед сроком; фигурными скобками обозначены явления, наблюдавшиеся между сроками (за 1-3 часа до срока); квадратными скобками обозначены град или гололедные отложения с указанием их диаметра в мм.
Облачность - указаны через наклонную черту общая и нижняя облачность в баллах и высота нижней границы облаков в метрах; квадратными скобками обозначены формы облаков: Ci - перистые, Cs - перисто-слоистые, Cc - перисто-кучевые, Ac - высококучевые, As - высокослоистые, Sc - слоисто-кучевые, Ns - слоисто-дождевые, Cu - кучевые, Cb - кучево-дождевые. Подробнее классификацию облаков см. в Атласе облаков (PDF).
T - Температура воздуха - температура, измеренная на высоте 2 м над землей.
Td - Температура точки росы - температура, при понижении до которой содержащийся в воздухе водяной пар достигнет насыщения.
f - Относительная влажность воздуха - влажноcть воздуха, измеренная на высоте 2 м над землей.
Te - Эффективная температура - температура, которую ощущает одетый по сезону человек в тени. Характеристика душности погоды. При расчете учитывается влияние влажности воздуха и скорости ветра на теплоощущения человека.
Tes - Эффективная температура на солнце - температура, которую ощущает человек, с поправкой на солнечный нагрев. Характеристика знойности погоды. Зависит от высоты солнца над горизонтом, облачности и скорости ветра. Ночью, в пасмурную погоду, а также при ветре 12 м/с и более поправка равна нулю.
P - Атмосферное давление - приведенное к уровню моря атмосферное давление.
Po - Атмосферное давление - измеренное на уровне метеостанции атмосферное давление.
Tmin - Минимальная температура - минимум температуры воздуха на высоте 2 м над землей.
Tmax - Максимальная температура - максимум температуры воздуха на высоте 2 м над землей.
R - Количество осадков - Количество выпавших осадков за период времени, мм. При наведении курсора мыши на число - период времени, за который выпало указанное количество осадков.
R24 - Количество осадков - Количество выпавших осадков за 24 часа, мм.
S - Снежный покров - Высота снежного покрова, см. При наведении курсора мыши на число - состояние снежного покрова и степень покрытия местности в баллах.